[[{"header":{"parameterUnit":"m.s-1","parameterCategory":1,"la1":30.2991,"la2":30.254,"lo1":-89.0895,"lo2":-89.0444,"dy":0.0017,"dx":0.0017,"nx":28,"ny":28,"refTime":"2023-08-06T21:00:00:Z","depth":0,"parameterNumber":2,"parameterNumberName":"U-component_of_WINDS"},"data":[0,0,0,0,0,0,0,0,0,0,0,0,0,0,0,0,0,0,0,0,0,0,0,0,0,0,0,0,0,0,0,0,0,0,0,0,0,0,0,0,0,0,0,0,0,0,0,0,0,0,0,0,0,0,0,0,0,0,3.2114,3.2115,0,3.2227,3.2228,3.2229,3.2195,3.2192,3.219,3.2187,3.2311,3.2316,3.2321,0,0,0,0,0,0,0,0,0,0,0,0,0,3.1875,3.188,3.2114,3.2115,3.2116,3.2227,3.2228,3.223,3.2195,3.2192,3.2189,3.2186,3.2309,3.2315,3.2322,0,0,0,0,0,0,0,0,0,0,0,0,0,3.1983,3.1882,3.2113,3.2112,3.2113,3.2226,3.2228,3.223,3.2196,3.2192,3.2188,3.2185,3.2307,3.2315,3.2323,3.2446,0,0,3.2348,3.2352,0,0,0,0,0,0,0,0,3.1977,3.1992,3.2111,3.2112,3.2114,3.2193,3.2189,3.2303,3.2196,3.2165,3.2187,3.2183,3.2275,3.2285,3.2315,3.2452,3.2457,3.2349,3.2354,3.2357,3.236,0,0,0,0,0,0,0,3.197,3.1987,3.2159,3.2113,3.2115,3.2109,3.212,3.2211,3.2239,3.2167,3.2165,3.2178,3.2275,3.2307,3.2317,3.2459,3.2349,3.2356,3.2361,3.2364,3.2706,3.271,0,0,0,0,0,0,3.196,3.1981,3.2155,3.2162,3.2035,3.2116,3.2128,3.2171,3.2238,3.2244,3.2181,3.2176,3.2295,3.2308,3.2322,3.2472,3.2357,3.2365,3.237,3.2702,3.2707,3.2712,0,0,0,0,0,0,3.1955,3.1976,3.215,3.2071,3.2092,3.2124,3.2172,3.2175,3.2207,3.2248,3.2254,3.2208,3.2292,3.231,3.2416,3.2476,3.2369,3.2376,3.2697,3.2704,3.2709,3.2773,0,0,0,0,0,0,3.1948,3.1974,3.2019,3.2072,3.2097,3.224,3.2176,3.218,3.2221,3.2215,3.2275,3.2282,3.2291,3.2403,3.2424,3.2485,3.2383,3.2692,3.27,3.2707,3.2766,3.2781,3.2793,0,0,0,0,0,3.194,3.2034,3.2022,3.2043,3.2153,3.2243,3.2258,3.2265,3.2225,3.2273,3.23,3.228,3.2466,3.2414,3.2437,3.2502,3.2688,3.2698,3.2707,3.2759,3.2778,3.2793,0,0,0,0,0,0,3.1989,3.2041,3.2028,3.2141,3.2188,3.2237,3.2297,3.2283,3.2344,3.2337,3.2345,3.2359,3.2467,3.2495,3.2437,3.2627,3.2572,3.2586,3.2604,3.2622,3.2635,3.2627,3.239,0,0,0,0,0,3.2013,3.2079,3.2122,3.2218,3.2242,3.2265,3.2305,3.2306,3.2356,3.2376,3.241,3.2462,3.2532,3.2578,3.2645,3.2769,3.2784,3.2826,3.2839,3.2851,3.2863,3.2934,3.2954,3.2742,3.2742,3.2742,0,0,3.2064,3.21,3.2141,3.2228,3.2265,3.2336,3.2282,3.236,3.2414,3.2389,3.249,3.2518,3.2576,3.2692,3.2745,3.2718,3.2925,3.2862,3.2871,3.2878,3.2945,3.2965,3.2983,3.2748,3.2747,3.2746,0,0,3.2192,3.2225,3.2309,3.2347,3.2402,3.2418,3.2438,3.249,3.2507,3.2608,3.2592,3.2657,3.2777,3.282,3.2858,3.3005,3.299,3.3026,3.3099,3.3168,3.3184,3.3199,3.3253,3.3273,3.3039,3.3039,3.3039,0,3.2248,3.2352,3.2355,3.2434,3.2474,3.2453,3.254,3.2578,3.2653,3.2683,3.2652,3.2803,3.2841,3.2968,3.3004,3.3034,3.306,3.302,3.3181,3.3196,3.321,3.3262,3.3282,3.3043,3.3042,3.3042,3.3042,0,3.242,3.2493,3.2555,3.2626,3.2673,3.2756,3.2774,3.2822,3.282,3.284,3.2945,3.2989,3.3066,3.3096,3.3095,3.3224,3.3206,3.3178,3.3124,3.3234,3.3283,3.3303,3.3049,3.3047,3.3046,3.3045,0,0,3.2582,3.2654,3.2677,3.271,3.2771,3.2829,3.2912,3.2985,3.3027,3.308,3.3152,3.3255,3.323,3.3273,3.3277,3.3337,3.3453,3.3302,3.3304,3.333,3.3601,3.3622,3.3645,3.3443,3.3447,3.345,3.3596,0,3.2716,3.286,3.2866,3.2999,3.3068,3.305,3.3123,3.317,3.3191,3.3255,3.3279,3.3352,3.3313,3.3339,3.3397,3.3426,3.3508,3.3416,3.3513,3.3516,3.35,3.367,3.3692,3.3828,3.3615,3.3619,3.3621,0,3.2892,3.2949,3.3088,3.3141,3.317,3.3235,3.3304,3.3364,3.3418,3.3429,3.3478,3.3473,3.3562,3.3504,3.3628,3.3565,3.3606,3.3626,3.3632,3.3642,3.3576,3.3686,3.3872,3.3892,3.3651,3.3648,3.3646,0,3.2999,3.3111,3.3209,3.3238,3.3301,3.3347,3.3377,3.3426,3.3471,3.3531,3.3561,3.3632,3.3671,3.3727,3.3744,3.3699,3.3868,3.3811,3.3883,3.3883,3.392,3.3917,3.4115,3.3944,3.3944,3.3943,3.3943,0,3.3149,3.3235,3.3257,3.3318,3.3415,3.3423,3.3519,3.3546,3.3591,3.3658,3.3648,3.3712,3.3729,3.3797,3.3811,3.3913,3.393,3.3944,3.3947,3.3946,3.3944,3.3973,3.3964,3.3949,3.3947,3.3946,3.3945,0,3.3284,3.3302,3.3408,3.3459,3.3474,3.3544,3.3589,3.3649,3.3669,3.3755,3.3775,3.3808,3.3888,3.3909,3.4005,3.4015,3.4135,3.4129,3.4116,3.4117,3.4188,3.4181,3.4412,3.4444,3.4251,3.4252,3.4254,0,3.3379,3.3445,3.3503,3.3546,3.3577,3.3647,3.3692,3.3703,3.375,3.3818,3.387,3.3948,3.4011,3.4141,3.4175,3.4249,3.4245,3.4321,3.4256,3.4254,3.4248,3.4244,3.4252,3.4333,3.4335,3.4337,3.4338,0,3.3547,3.3553,3.3616,3.3684,3.3737,3.3792,3.3844,3.3881,3.3899,3.3954,3.4034,3.4083,3.4181,3.426,3.4335,3.4368,3.4358,3.4358,3.4379,3.4379,3.437,3.4377,3.4151,3.4353,3.4352,3.4351,3.435,3.4349,3.3666,3.3724,3.3774,3.3846,3.3887,3.3936,3.3995,3.4022,3.4089,3.4168,3.4171,3.4259,3.4314,3.4414,3.4451,3.4522,3.45,3.453,3.4538,3.4545,3.4552,3.4358,3.4536,3.4536,3.4535,3.4535,3.4535,0,3.3834,3.3866,3.3932,3.4004,3.4062,3.4045,3.4102,3.4152,3.4229,3.428,3.4342,3.4437,3.4513,3.4554,3.4631,3.468,3.4678,3.47,3.4697,3.4706,3.4567,3.4541,3.4701,3.4701,3.4701,3.4701,3.4701,3.4701,3.3928,3.4027,3.4039,3.4159,3.419,3.4275,3.431,3.4356,3.4397,3.4502,3.4565,3.459,3.4638,3.4718,3.4789,3.4799,3.4829,3.4855,3.4863,3.4732,3.4715,3.4699,3.4675,3.4861,3.4861,3.4996,3.4997,3.4998]},{"header":{"parameterUnit":"m.s-1","parameterCategory":1,"la1":30.2991,"la2":30.254,"lo1":-89.0895,"lo2":-89.0444,"dy":0.0017,"dx":0.0017,"nx":28,"ny":28,"refTime":"2023-08-06T21:00:00:Z","depth":0,"parameterNumber":3,"parameterNumberName":"V-component_of_WINDS"},"data":[0,0,0,0,0,0,0,0,0,0,0,0,0,0,0,0,0,0,0,0,0,0,0,0,0,0,0,0,0,0,0,0,0,0,0,0,0,0,0,0,0,0,0,0,0,0,0,0,0,0,0,0,0,0,0,0,0,0,1.8697,1.8698,0,1.8796,1.8797,1.8798,1.8843,1.8843,1.8843,1.8842,1.894,1.8943,1.8946,0,0,0,0,0,0,0,0,0,0,0,0,0,1.8541,1.8543,1.8697,1.8698,1.8699,1.8796,1.8797,1.8798,1.8843,1.8843,1.8842,1.8842,1.894,1.8943,1.8946,0,0,0,0,0,0,0,0,0,0,0,0,0,1.8621,1.8544,1.8697,1.8733,1.8737,1.8795,1.8797,1.8799,1.8843,1.8843,1.8842,1.8842,1.8938,1.8942,1.8946,1.8974,0,0,1.8959,1.8961,0,0,0,0,0,0,0,0,1.8616,1.8627,1.8727,1.8731,1.8736,1.8807,1.8778,1.8858,1.8843,1.8803,1.8842,1.8842,1.8896,1.8903,1.8922,1.8979,1.8983,1.8959,1.8962,1.8963,1.8964,0,0,0,0,0,0,0,1.8611,1.8623,1.8736,1.8728,1.8734,1.8743,1.8754,1.8793,1.8849,1.8806,1.881,1.8821,1.8898,1.8918,1.8925,1.8985,1.8959,1.8963,1.8965,1.8967,1.9065,1.9065,0,0,0,0,0,0,1.86,1.8618,1.8733,1.8739,1.8675,1.8746,1.8758,1.8784,1.8849,1.8858,1.8821,1.8823,1.8911,1.892,1.8928,1.8963,1.8963,1.8967,1.8969,1.9065,1.9065,1.9066,0,0,0,0,0,0,1.8596,1.861,1.8729,1.8679,1.8695,1.8749,1.8777,1.8786,1.8806,1.886,1.8869,1.8831,1.8912,1.8923,1.8962,1.8968,1.8969,1.8973,1.9065,1.9065,1.9065,1.9035,0,0,0,0,0,0,1.8592,1.8608,1.8621,1.8679,1.8698,1.8763,1.8778,1.8788,1.8813,1.8817,1.8872,1.8881,1.8912,1.8956,1.8966,1.8973,1.8976,1.9065,1.9065,1.9065,1.9036,1.9034,1.9033,0,0,0,0,0,1.8586,1.8609,1.8622,1.8635,1.8715,1.8763,1.8773,1.881,1.8814,1.8826,1.886,1.8879,1.8965,1.8959,1.8971,1.898,1.9064,1.9065,1.9065,1.9036,1.9034,1.9033,0,0,0,0,0,0,1.8549,1.8617,1.8632,1.8675,1.8713,1.877,1.8787,1.8807,1.8844,1.8845,1.8887,1.8899,1.8934,1.8961,1.8953,1.9008,1.9016,1.9019,1.899,1.8989,1.8987,1.898,1.8979,0,0,0,0,0,1.8546,1.8581,1.8638,1.8669,1.8688,1.8734,1.8756,1.878,1.8821,1.8837,1.8874,1.8912,1.8947,1.8969,1.9005,1.9039,1.905,1.905,1.9049,1.9047,1.9049,1.9066,1.9066,1.9067,1.9067,1.9067,0,0,1.854,1.8581,1.8601,1.8663,1.8695,1.8728,1.8747,1.8782,1.8806,1.8842,1.8882,1.8909,1.8954,1.899,1.9008,1.9013,1.9051,1.9048,1.9046,1.9049,1.9067,1.9067,1.9067,1.9067,1.9067,1.9067,0,0,1.8546,1.8582,1.8611,1.8642,1.8691,1.8721,1.8727,1.8782,1.8802,1.8842,1.8868,1.8896,1.8957,1.8987,1.901,1.9022,1.9041,1.9032,1.9025,1.9041,1.9041,1.9041,1.9044,1.9044,1.9034,1.9034,1.9034,0,1.8533,1.8585,1.8623,1.8656,1.8681,1.8715,1.8743,1.8771,1.8828,1.8844,1.8849,1.8924,1.8956,1.8998,1.9001,1.9019,1.9026,1.9027,1.9038,1.9039,1.9039,1.9042,1.9043,1.9032,1.9033,1.9033,1.9033,0,1.8564,1.86,1.8617,1.8671,1.8698,1.8729,1.8769,1.8791,1.8812,1.8841,1.8879,1.8918,1.8961,1.8973,1.8994,1.9017,1.9018,1.903,1.9039,1.9037,1.904,1.9042,1.903,1.9031,1.9031,1.9032,0,0,1.8553,1.8625,1.8631,1.8655,1.8709,1.8736,1.8766,1.8808,1.8825,1.8862,1.8887,1.8935,1.8946,1.8972,1.8996,1.901,1.9014,1.902,1.9021,1.9016,1.9039,1.903,1.903,1.9026,1.9027,1.9027,1.9035,0,1.8565,1.8622,1.8656,1.8698,1.8729,1.876,1.8786,1.882,1.8847,1.8875,1.8904,1.8937,1.8949,1.8964,1.898,1.901,1.9019,1.901,1.9048,1.9049,1.9036,1.9033,1.9024,1.9029,1.9037,1.9037,1.9037,0,1.8588,1.8624,1.867,1.8717,1.8732,1.8755,1.8794,1.8822,1.886,1.8878,1.8905,1.8929,1.8959,1.8964,1.9005,1.8998,1.9015,1.9031,1.9032,1.9037,1.9043,1.9036,1.9032,1.9032,1.904,1.904,1.9039,0,1.8573,1.8633,1.8667,1.8686,1.8744,1.8758,1.8782,1.8821,1.8843,1.8876,1.889,1.8927,1.8946,1.8973,1.9004,1.9006,1.9041,1.905,1.9055,1.9054,1.9061,1.906,1.9059,1.9072,1.9072,1.9072,1.9072,0,1.8583,1.8609,1.8661,1.8682,1.8711,1.8747,1.8774,1.8801,1.8834,1.8859,1.8887,1.8909,1.895,1.8976,1.9,1.9029,1.9038,1.9051,1.9057,1.9049,1.9047,1.9061,1.9061,1.9073,1.9073,1.9073,1.9073,0,1.8572,1.8607,1.8646,1.8696,1.8709,1.8728,1.877,1.879,1.8817,1.8847,1.8856,1.8898,1.893,1.8964,1.9008,1.9024,1.9051,1.906,1.9038,1.9041,1.9044,1.9043,1.9051,1.9053,1.9066,1.9065,1.9065,0,1.8576,1.8597,1.8648,1.8667,1.869,1.8721,1.8743,1.8778,1.88,1.8843,1.8857,1.8891,1.8921,1.897,1.9003,1.9036,1.9045,1.9045,1.905,1.904,1.9043,1.9042,1.9043,1.9044,1.9044,1.9043,1.9043,0,1.8579,1.8595,1.8626,1.8663,1.8689,1.8719,1.875,1.8764,1.8805,1.8827,1.886,1.8883,1.8927,1.8959,1.8995,1.9018,1.9036,1.9041,1.9044,1.9035,1.9021,1.9027,1.9033,1.9041,1.9041,1.9041,1.9042,1.9042,1.8575,1.8593,1.8632,1.8665,1.8692,1.872,1.874,1.8769,1.8798,1.8837,1.8855,1.8888,1.8922,1.8972,1.8994,1.9018,1.9024,1.9028,1.9029,1.9029,1.9026,1.9017,1.9025,1.9025,1.9025,1.9025,1.9025,0,1.8578,1.8603,1.8634,1.8676,1.8701,1.8717,1.8751,1.8771,1.88,1.883,1.8858,1.8894,1.8925,1.8959,1.8992,1.9005,1.9014,1.9012,1.9011,1.9015,1.902,1.9014,1.9004,1.9004,1.9004,1.9004,1.9004,1.9004,1.8583,1.8615,1.8634,1.8678,1.8703,1.8736,1.8754,1.8778,1.8803,1.8843,1.8869,1.8891,1.8922,1.8956,1.8984,1.8993,1.9003,1.8998,1.901,1.9014,1.9015,1.9017,1.9012,1.9001,1.9001,1.9003,1.9003,1.9003]}]]